Waarnemingen

Advertentie
Mijn weer
Salon, Frankrijk (7648): temperatuur & dauwpunt: 20.05.2017 17:00:00 - 26.05.2017 17:00:00 (CEST)Salon, Frankrijk (7648): temperatuur 5cm: 20.05.2017 17:00:00 - 26.05.2017 17:00:00 (CEST)Salon, Frankrijk (7648): windsnelheid & windstoten: 20.05.2017 17:00:00 - 26.05.2017 17:00:00 (CEST)Salon, Frankrijk (7648): windrichting: 20.05.2017 17:00:00 - 26.05.2017 17:00:00 (CEST)Salon, Frankrijk (7648): luchtdruk: 20.05.2017 17:00:00 - 26.05.2017 17:00:00 (CEST)Salon, Frankrijk (7648): zicht: 20.05.2017 17:00:00 - 26.05.2017 17:00:00 (CEST)Salon, Frankrijk (7648): neerslag: 20.05.2017 17:00:00 - 26.05.2017 17:00:00 (CEST)
Datum & Tijd tt [°C] td [°C] tt 5cm [°C] ff [km/u] ff [kn] fx [km/u] fx [kn] dd ppp [hPa] vv [km] rr [mm]
26.05.2017 17:00:00 - - - - - - - - - - -
26.05.2017 16:00:00 26,6 9,4 36,6 19 11 38 20 ZZW 1016,7 16 0,0
26.05.2017 15:00:00 26,7 11,2 39,4 19 11 36 20 Z 1016,8 17 0,0
26.05.2017 14:00:00 26,4 10,5 37,8 16 8 30 16 Z 1017,0 18 0,0
26.05.2017 13:00:00 26,4 10,9 35,1 17 9 35 19 ZZW 1017,1 19 0,0
26.05.2017 12:00:00 26,0 14,5 29,4 16 9 27 15 WZW 1017,0 19 0,0
26.05.2017 11:00:00 24,4 16,4 30,0 3 2 10 5 NNW 1017,0 18 0,0
26.05.2017 10:00:00 22,7 16,3 23,9 5 3 14 7 W 1017,1 17 0,0
26.05.2017 09:00:00 20,3 15,9 18,4 4 2 9 5 WZW 1017,0 11 0,0
26.05.2017 08:00:00 16,2 14,9 13,1 4 2 5 3 WZW 1016,7 9 0,0
26.05.2017 07:00:00 13,8 13,3 10,4 0 0 5 3 N 1016,6 8 0,2
26.05.2017 06:00:00 13,7 13,2 10,0 3 1 5 3 ZW 1016,6 5 0,0
26.05.2017 05:00:00 14,0 13,4 10,6 0 0 4 2 N 1016,5 6 0,0
26.05.2017 04:00:00 14,4 13,8 11,0 0 0 7 4 N 1016,1 4,1 0,0
26.05.2017 03:00:00 14,5 13,7 11,5 6 4 8 4 ONO 1015,9 6 0,0
26.05.2017 02:00:00 15,9 14,8 12,2 0 0 6 4 N 1016,2 4,9 0,0
26.05.2017 01:00:00 16,8 15,0 13,1 0 0 6 3 N 1016,3 6 0,0
26.05.2017 00:00:00 17,6 15,6 15,3 3 2 8 4 NW 1016,0 9 0,0
25.05.2017 23:00:00 18,4 15,6 17,0 5 3 10 5 WNW 1015,7 10 0,0
25.05.2017 22:00:00 19,9 15,5 18,1 5 3 13 7 WNW 1015,2 15 0,0
25.05.2017 21:00:00 22,4 15,3 21,4 8 4 14 7 W 1014,3 22 0,0
25.05.2017 20:00:00 25,9 15,0 - 8 4 11 6 ZW 1013,9 35 -
25.05.2017 19:00:00 26,5 15,2 36,0 7 4 18 10 ZZW 1013,7 30 0,0
25.05.2017 18:00:00 27,0 15,1 37,8 10 5 20 11 ZZW 1014,0 20 0,0
25.05.2017 17:00:00 27,3 15,0 37,3 13 7 22 12 ZW 1014,2 20 0,0
25.05.2017 16:00:00 26,3 16,5 39,1 13 7 26 14 ZZW 1014,4 20 0,0
25.05.2017 15:00:00 25,6 16,2 39,8 16 9 29 16 ZZW 1014,4 19 0,0
25.05.2017 14:00:00 27,2 15,9 38,9 19 10 28 15 ZZW 1013,9 19 0,0
25.05.2017 13:00:00 28,6 14,1 36,8 7 4 16 8 Z 1013,8 60 0,0
25.05.2017 12:00:00 26,9 13,6 31,8 6 4 21 11 N 1013,9 20 0,0
25.05.2017 11:00:00 25,5 13,0 29,8 12 6 24 13 NNW 1014,1 47 0,0
25.05.2017 10:00:00 23,3 13,2 26,1 15 8 24 13 NNW 1014,2 57 0,0
25.05.2017 09:00:00 21,7 13,1 22,2 14 8 23 12 N 1014,1 60 0,0
25.05.2017 08:00:00 20,0 13,9 13,5 4 2 7 4 O 1013,8 48 0,0
25.05.2017 07:00:00 15,3 13,3 9,8 3 2 7 4 OZO 1013,8 35 0,0
25.05.2017 06:00:00 13,4 12,0 9,5 0 0 4 2 N 1013,7 10 0,0
25.05.2017 05:00:00 13,4 12,3 9,8 0 0 4 2 N 1013,8 9 0,0
25.05.2017 04:00:00 14,5 13,5 10,0 2 1 7 4 NNO 1014,0 13 0,0
25.05.2017 03:00:00 15,1 13,8 10,6 0 0 7 4 N 1014,4 11 0,0
25.05.2017 02:00:00 15,8 14,5 11,7 4 2 11 6 ZO 1015,1 13 0,0
25.05.2017 01:00:00 15,6 14,5 11,5 6 4 10 5 NO 1015,5 13 0,0
25.05.2017 00:00:00 16,5 14,9 12,4 4 2 8 4 NNO 1016,0 11 0,0
24.05.2017 23:00:00 18,2 15,1 14,9 5 3 16 8 ZZW 1016,0 11 0,0
24.05.2017 22:00:00 19,7 15,8 17,5 9 5 15 8 ZZW 1015,9 17 0,0
24.05.2017 21:00:00 21,4 16,1 19,4 7 4 15 8 ZW 1016,0 23 0,0
24.05.2017 20:00:00 23,2 16,3 26,0 10 6 17 9 ZZW 1016,1 20 0,0
24.05.2017 19:00:00 23,3 16,3 33,1 11 6 22 12 ZZW 1016,2 20 0,0
24.05.2017 18:00:00 25,2 16,6 35,8 18 10 26 14 ZZW 1016,2 20 0,0
24.05.2017 17:00:00 26,6 16,8 39,8 15 8 25 13 ZZW 1016,6 20 0,0
24.05.2017 16:00:00 26,9 16,8 39,4 15 8 25 14 ZZW 1017,0 20 0,0
24.05.2017 15:00:00 27,6 16,2 38,3 19 10 26 14 ZZW 1017,1 20 0,0
24.05.2017 14:00:00 27,9 16,2 40,2 15 8 23 12 Z 1017,4 49 0,0
24.05.2017 13:00:00 27,5 16,1 35,6 16 8 24 13 ZW 1017,8 20 0,0
24.05.2017 12:00:00 27,1 14,1 33,8 7 4 19 10 WZW 1018,3 41 0,0
24.05.2017 11:00:00 25,2 14,6 29,3 10 5 20 11 N 1018,5 20 0,0
24.05.2017 10:00:00 23,5 15,0 26,2 11 6 21 11 NNW 1018,6 33 0,0
24.05.2017 09:00:00 21,9 14,8 22,9 15 8 20 11 NNW 1018,6 36 0,0
24.05.2017 08:00:00 20,1 14,7 13,1 3 2 6 4 O 1018,4 19 0,0
24.05.2017 07:00:00 15,6 13,1 - 0 0 8 4 N 1018,2 35 0,0
24.05.2017 06:00:00 15,8 12,7 11,4 4 2 7 4 O 1018,0 47 0,0
24.05.2017 05:00:00 15,5 13,5 10,4 0 0 6 4 N 1017,9 36 0,0
24.05.2017 04:00:00 15,2 12,7 11,0 0 0 9 5 N 1017,9 31 0,0
24.05.2017 03:00:00 15,3 12,8 11,9 6 3 11 6 ONO 1018,1 33 0,0
24.05.2017 02:00:00 16,5 13,2 12,2 4 2 9 5 O 1018,1 32 0,0
24.05.2017 01:00:00 17,3 13,2 13,2 4 2 10 5 O 1017,9 44 0,0
24.05.2017 00:00:00 21,7 11,4 15,5 2 1 17 9 O 1017,6 60 0,0
23.05.2017 23:00:00 23,3 10,7 19,2 6 4 15 8 NNW 1017,3 60 0,0
23.05.2017 22:00:00 24,9 10,0 21,9 3 2 27 15 W 1017,0 60 0,0
23.05.2017 21:00:00 26,3 11,6 25,1 16 9 34 18 NW 1016,6 60 0,0
23.05.2017 20:00:00 28,0 11,1 28,6 19 10 35 19 NW 1016,3 43 0,0
23.05.2017 19:00:00 29,4 10,5 33,4 19 10 43 23 NNW 1016,3 32 0,0
23.05.2017 18:00:00 29,9 9,9 33,8 22 12 40 22 NW 1016,6 29 0,0
23.05.2017 17:00:00 30,4 11,4 35,1 22 12 41 22 NNW 1016,6 31 0,0
23.05.2017 16:00:00 30,4 11,4 36,1 24 13 39 21 NNW 1016,6 37 0,0
23.05.2017 15:00:00 29,4 11,4 - 24 13 37 20 NW 1017,0 18 0,0
23.05.2017 14:00:00 28,7 10,8 34,7 22 12 33 18 NW 1017,5 53 0,0
23.05.2017 13:00:00 26,6 12,3 33,7 4 2 15 8 NO 1017,9 20 0,0
23.05.2017 12:00:00 24,2 11,2 27,0 11 6 31 17 NNW 1018,3 40 0,0
23.05.2017 11:00:00 22,2 9,4 26,5 7 4 14 8 NNW 1018,5 18 0,0
23.05.2017 10:00:00 20,9 12,1 23,4 4 2 9 5 NNW 1018,5 20 0,0
23.05.2017 09:00:00 18,6 11,9 18,4 5 3 11 6 N 1018,4 50 0,0
23.05.2017 08:00:00 14,6 12,1 9,4 5 3 8 4 NNO 1018,3 9 0,0
23.05.2017 07:00:00 10,8 10,0 6,0 3 2 6 3 NO 1018,1 28 0,0
23.05.2017 06:00:00 9,8 9,0 6,1 2 1 5 3 NNO 1017,9 27 0,0
23.05.2017 05:00:00 10,6 9,8 6,8 3 2 6 3 NO 1017,7 35 0,0
23.05.2017 04:00:00 12,0 10,9 7,4 0 0 5 3 N 1017,7 45 0,0
23.05.2017 03:00:00 12,9 11,3 9,0 4 2 5 3 NO 1018,1 45 0,0
23.05.2017 02:00:00 14,7 12,0 10,7 2 1 4 2 ZZO 1018,4 36 0,0
23.05.2017 01:00:00 15,6 12,9 11,0 0 0 3 2 N 1018,7 53 0,0
23.05.2017 00:00:00 16,0 11,8 11,7 3 1 5 3 ZW 1018,7 60 0,0
22.05.2017 23:00:00 16,9 8,8 14,3 5 3 7 4 ZW 1018,7 60 0,0
22.05.2017 22:00:00 18,1 6,6 14,7 0 0 8 4 N 1018,3 60 0,0
22.05.2017 21:00:00 19,7 4,6 17,8 4 2 10 5 ZW 1018,2 60 0,0
22.05.2017 20:00:00 21,3 6,4 21,3 7 4 15 8 ZW 1017,8 57 0,0
22.05.2017 19:00:00 22,7 5,6 24,1 10 6 21 12 ZZW 1017,7 60 0,0
22.05.2017 18:00:00 24,3 7,4 28,7 11 6 24 13 ZZW 1017,8 59 0,0
22.05.2017 17:00:00 24,6 3,8 31,1 14 7 20 11 Z 1018,1 58 0,0
22.05.2017 16:00:00 24,1 6,4 26,7 8 4 16 9 ZZW 1018,9 58 0,0
22.05.2017 15:00:00 21,7 8,6 25,2 0 0 11 6 N 1019,1 60 0,0
22.05.2017 14:00:00 21,4 10,5 24,4 6 4 23 12 ZZW 1019,5 59 0,0
22.05.2017 13:00:00 22,3 9,5 25,1 4 2 14 8 ZW 1019,6 20 0,0
22.05.2017 12:00:00 20,9 9,8 23,3 10 5 13 7 ZW 1019,9 60 0,0
22.05.2017 11:00:00 21,3 8,5 24,2 4 2 12 7 WZW 1019,5 53 0,0
22.05.2017 10:00:00 20,5 10,6 24,2 0 0 6 3 N 1019,5 60 0,0
22.05.2017 09:00:00 18,9 11,2 16,6 3 2 8 4 NO 1019,2 59 0,0
22.05.2017 08:00:00 14,2 11,0 10,2 3 2 6 4 NNO 1019,3 59 0,0
22.05.2017 07:00:00 11,5 8,7 7,2 5 3 8 4 ZW 1018,8 60 0,0
22.05.2017 06:00:00 9,9 8,3 5,8 3 2 6 3 NO 1018,4 60 0,0
22.05.2017 05:00:00 9,2 8,1 4,9 2 1 6 3 N 1018,5 57 0,0
22.05.2017 04:00:00 9,0 7,9 4,8 0 0 5 3 N 1019,1 45 0,0
22.05.2017 03:00:00 9,9 8,5 5,4 0 0 6 3 N 1019,2 49 0,0
22.05.2017 02:00:00 10,5 8,9 6,0 0 0 4 2 N 1019,6 44 0,0
22.05.2017 01:00:00 11,0 9,1 6,7 3 1 4 2 NNO 1020,0 53 0,0
22.05.2017 00:00:00 12,2 9,4 7,8 3 1 5 3 NNO 1020,2 57 0,0
21.05.2017 23:00:00 13,8 10,2 8,8 4 2 7 4 NNO 1020,5 38 0,0
21.05.2017 22:00:00 17,1 10,5 11,8 4 2 6 3 ZW 1020,4 59 0,0
21.05.2017 21:00:00 19,8 9,7 16,1 4 2 13 7 ZZW 1019,8 60 0,0
21.05.2017 20:00:00 22,0 9,8 25,0 9 5 17 9 WZW 1019,5 20 0,0
21.05.2017 19:00:00 23,4 8,3 29,9 9 5 19 10 ZZW 1019,2 60 0,0
21.05.2017 18:00:00 23,6 8,1 28,7 12 7 23 13 ZZW 1019,5 60 0,0
21.05.2017 17:00:00 23,8 7,8 29,5 13 7 25 13 ZZW 1019,5 60 0,0
21.05.2017 16:00:00 24,9 7,1 34,2 17 9 28 15 ZZW 1019,5 60 0,0
21.05.2017 15:00:00 25,8 6,4 34,9 10 5 23 12 ZW 1019,5 60 0,0
21.05.2017 14:00:00 24,9 6,1 33,8 9 5 26 14 ZW 1019,9 60 0,0
21.05.2017 13:00:00 24,3 6,1 31,7 14 7 22 12 ZZW 1020,3 60 0,0
21.05.2017 12:00:00 22,3 7,7 27,1 6 4 17 9 N 1020,5 20 0,0
21.05.2017 11:00:00 20,4 7,4 24,9 8 4 21 11 NNW 1020,6 60 0,0
21.05.2017 10:00:00 18,3 7,4 21,9 12 6 20 11 N 1020,5 60 0,0
21.05.2017 09:00:00 16,4 6,8 16,0 10 5 18 10 N 1020,8 60 0,0
21.05.2017 08:00:00 14,1 6,7 8,3 9 5 16 8 N 1020,7 60 0,0
21.05.2017 07:00:00 11,5 6,6 7,4 4 2 22 12 ONO 1020,3 58 0,0
21.05.2017 06:00:00 11,4 6,1 8,6 12 7 21 11 NNW 1020,2 60 0,0
21.05.2017 05:00:00 12,7 6,3 10,4 9 5 28 15 NNW 1020,0 60 0,0
21.05.2017 04:00:00 13,6 6,0 12,6 16 9 31 17 NW 1019,9 60 0,0
21.05.2017 03:00:00 14,4 5,5 13,5 18 10 41 22 NW 1020,2 60 0,0
21.05.2017 02:00:00 14,8 5,3 13,6 24 13 37 20 NW 1020,5 60 0,0
21.05.2017 01:00:00 15,6 4,9 11,9 14 8 24 13 NW 1021,1 60 0,0
21.05.2017 00:00:00 16,1 4,5 13,4 5 3 46 25 NNW 1021,1 60 0,0
20.05.2017 23:00:00 17,5 3,7 16,4 32 18 48 26 NNW 1020,6 60 0,0
20.05.2017 22:00:00 17,8 3,6 16,8 21 12 46 25 NNW 1020,8 60 0,0
20.05.2017 21:00:00 18,8 3,8 17,9 23 13 51 28 NW 1020,4 60 0,0
20.05.2017 20:00:00 20,4 3,6 21,2 32 17 55 30 NNW 1020,1 26 0,0
20.05.2017 19:00:00 21,3 4,4 24,4 36 20 54 29 NNW 1019,9 24 0,0
20.05.2017 18:00:00 21,9 5,7 26,7 30 16 54 29 NNW 1019,9 25 0,0
20.05.2017 17:00:00 22,2 5,2 27,4 30 16 59 32 NNW 1020,1 20 0,0

tt = temperatuur
td = dauwpunt
tt 5cm = temperatuur 5cm
ff = windsnelheid
fx = windstoten
dd = windrichting
ppp = luchtdruk
vv = zicht
rr = neerslag

Weerstations in de omgeving